Location: Bailleul
(50.3375°N, 2.8513°E)
Time: 04:50:02
(UTC+00:00)

Cosmos 921 Rocket - Pass Details

Date: 19 April 2021
Orbit: 572 x 631 km, 75.8° (Epoch: 09 May)

Event Time Altitude Azimuth Distance (km) Brightness Sun altitude
Rises 22:07:10 0° 341° (NNW) 2,915 7.9 -24.4°
Reaches altitude 10° 22:09:29 10° 346° (NNW) 1,996 6.7 -24.6°
Enters shadow 22:13:37 56° 49° (NE) 733 3.4 -24.8°
